• In Uzbekistan
  • List of Countries
  • For 7 days
  • Water Temperature
  • Satellite Maps
  • Weather Map
  • Weather Widgets
  • user-avatar
    Login

    Hourly Weather La Rioja

    Today, 21 July, Friday

    Time Temperature Precipitation Wind Pressure Humidity
    00:00 +13°C° 0 mm 1 mps 717 mmHg 27%
    01:00 +12°C° 0 mm 1 mps 717 mmHg 28%
    02:00 +12°C° 0 mm 1 mps 717 mmHg 29%
    03:00 +11°C° 0 mm 1 mps 717 mmHg 31%
    04:00 +11°C° 0 mm 1 mps 717 mmHg 32%
    05:00 +10°C° 0 mm 1 mps 717 mmHg 34%
    06:00 +11°C° 0 mm 1 mps 717 mmHg 32%
    07:00 +11°C° 0 mm 1 mps 718 mmHg 31%
    08:00 +11°C° 0 mm 1 mps 718 mmHg 29%
    09:00 +14°C° 0 mm 1 mps 719 mmHg 25%
    10:00 +18°C° 0 mm 1 mps 719 mmHg 20%
    11:00 +21°C° 0 mm 1 mps 720 mmHg 16%
    12:00 +21°C° 0 mm 2 mps 719 mmHg 16%
    13:00 +23°C° 0 mm 2 mps 718 mmHg 15%
    14:00 +24°C° 0 mm 2 mps 717 mmHg 14%
    15:00 +24°C° 0 mm 2 mps 717 mmHg 15%
    16:00 +23°C° 0 mm 2 mps 717 mmHg 16%
    17:00 +23°C° 0 mm 2 mps 716 mmHg 17%
    18:00 +20°C° 0 mm 2 mps 716 mmHg 20%
    19:00 +17°C° 0 mm 2 mps 716 mmHg 24%
    20:00 +15°C° 0 mm 1 mps 716 mmHg 28%
    21:00 +15°C° 0 mm 1 mps 715 mmHg 29%
    22:00 +14°C° 0 mm 1 mps 715 mmHg 30%
    23:00 +14°C° 0 mm 1 mps 715 mmHg 31%

    Tomorrow, 22 July, Saturday

    Time Temperature Precipitation Wind Pressure Humidity
    00:00 +13°C° 0 mm 1 mps 714 mmHg 32%
    01:00 +13°C° 0 mm 1 mps 714 mmHg 32%
    02:00 +12°C° 0 mm 1 mps 713 mmHg 33%
    03:00 +12°C° 0 mm 2 mps 713 mmHg 34%
    04:00 +12°C° 0 mm 2 mps 712 mmHg 35%
    05:00 +10°C° 0 mm 2 mps 712 mmHg 36%
    06:00 +12°C° 0 mm 2 mps 712 mmHg 36%
    07:00 +12°C° 0 mm 2 mps 712 mmHg 35%
    08:00 +12°C° 0 mm 2 mps 712 mmHg 35%
    09:00 +15°C° 0 mm 2 mps 712 mmHg 30%
    10:00 +18°C° 0 mm 2 mps 712 mmHg 26%
    11:00 +20°C° 0 mm 2 mps 712 mmHg 21%
    12:00 +21°C° 0 mm 2 mps 710 mmHg 20%
    13:00 +24°C° 0 mm 2 mps 709 mmHg 19%
    14:00 +25°C° 0 mm 2 mps 708 mmHg 17%
    15:00 +25°C° 0 mm 2 mps 708 mmHg 18%
    16:00 +25°C° 0 mm 2 mps 707 mmHg 19%
    17:00 +24°C° 0 mm 2 mps 707 mmHg 19%
    18:00 +21°C° 0 mm 2 mps 707 mmHg 22%
    19:00 +20°C° 0 mm 1 mps 707 mmHg 25%
    20:00 +18°C° 0 mm 1 mps 707 mmHg 28%
    21:00 +17°C° 0 mm 2 mps 708 mmHg 29%
    22:00 +17°C° 0 mm 2 mps 708 mmHg 31%
    23:00 +16°C° 0 mm 2 mps 708 mmHg 32%

    Day after tomorrow, 23 July, Sunday

    Time Temperature Precipitation Wind Pressure Humidity
    00:00 +16°C° 0 mm 2 mps 708 mmHg 36%
    01:00 +15°C° 0 mm 2 mps 708 mmHg 39%
    02:00 +15°C° 0 mm 2 mps 708 mmHg 43%
    03:00 +15°C° 0 mm 2 mps 708 mmHg 46%
    04:00 +14°C° 0 mm 2 mps 708 mmHg 48%
    05:00 +14°C° 0 mm 2 mps 707 mmHg 51%
    06:00 +14°C° 0 mm 2 mps 708 mmHg 50%
    07:00 +14°C° 0 mm 2 mps 709 mmHg 50%
    08:00 +15°C° 0 mm 2 mps 709 mmHg 49%
    09:00 +18°C° 0 mm 2 mps 710 mmHg 43%
    10:00 +21°C° 0 mm 2 mps 710 mmHg 36%
    11:00 +25°C° 0 mm 2 mps 711 mmHg 30%
    12:00 +25°C° 0 mm 2 mps 710 mmHg 28%
    13:00 +26°C° 0 mm 3 mps 710 mmHg 26%
    14:00 +27°C° 0 mm 3 mps 709 mmHg 24%
    15:00 +27°C° 0 mm 3 mps 709 mmHg 25%
    16:00 +26°C° 0 mm 3 mps 709 mmHg 26%
    17:00 +26°C° 0 mm 3 mps 709 mmHg 27%
    18:00 +24°C° 0 mm 3 mps 710 mmHg 32%
    19:00 +21°C° 0 mm 2 mps 711 mmHg 38%
    20:00 +18°C° 0 mm 2 mps 712 mmHg 44%
    21:00 +18°C° 0 mm 2 mps 712 mmHg 45%
    22:00 +17°C° 0 mm 3 mps 713 mmHg 46%
    23:00 +17°C° 0 mm 3 mps 714 mmHg 48%

    24 July, Monday

    Time Temperature Precipitation Wind Pressure Humidity
    00:00 +16°C° 0 mm 3 mps 714 mmHg 51%
    01:00 +16°C° 0 mm 3 mps 714 mmHg 55%
    02:00 +14°C° 0 mm 3 mps 714 mmHg 58%
    03:00 +14°C° 0 mm 3 mps 714 mmHg 59%
    04:00 +13°C° 0 mm 3 mps 714 mmHg 61%
    05:00 +13°C° 0 mm 3 mps 714 mmHg 62%
    06:00 +13°C° 0 mm 3 mps 714 mmHg 61%
    07:00 +13°C° 0 mm 3 mps 715 mmHg 60%
    08:00 +13°C° 0 mm 3 mps 715 mmHg 58%
    09:00 +16°C° 0 mm 3 mps 715 mmHg 52%
    10:00 +17°C° 0 mm 3 mps 716 mmHg 45%
    11:00 +19°C° 0 mm 3 mps 716 mmHg 39%
    12:00 +20°C° 0 mm 3 mps 715 mmHg 38%
    13:00 +21°C° 0 mm 3 mps 714 mmHg 37%
    14:00 +22°C° 0 mm 3 mps 713 mmHg 36%
    15:00 +22°C° 0 mm 3 mps 713 mmHg 37%
    16:00 +21°C° 0 mm 2 mps 713 mmHg 39%
    17:00 +21°C° 0 mm 2 mps 713 mmHg 40%
    18:00 +20°C° 0 mm 2 mps 714 mmHg 45%
    19:00 +18°C° 0 mm 2 mps 714 mmHg 49%
    20:00 +16°C° 0 mm 2 mps 715 mmHg 54%
    21:00 +16°C° 0 mm 2 mps 716 mmHg 53%
    22:00 +15°C° 0 mm 2 mps 716 mmHg 52%
    23:00 +15°C° 0 mm 2 mps 716 mmHg 52%

    25 July, Tuesday

    Time Temperature Precipitation Wind Pressure Humidity
    00:00 +15°C° 0 mm 2 mps 716 mmHg 52%
    01:00 +14°C° 0 mm 2 mps 716 mmHg 53%
    02:00 +14°C° 0 mm 2 mps 716 mmHg 54%
    03:00 +13°C° 0 mm 2 mps 716 mmHg 56%
    04:00 +13°C° 0 mm 2 mps 716 mmHg 57%
    05:00 +13°C° 0 mm 2 mps 716 mmHg 59%
    06:00 +13°C° 0 mm 2 mps 716 mmHg 58%
    07:00 +13°C° 0 mm 2 mps 717 mmHg 57%
    08:00 +13°C° 0 mm 2 mps 717 mmHg 57%
    09:00 +15°C° 0 mm 2 mps 717 mmHg 52%
    10:00 +17°C° 0 mm 2 mps 717 mmHg 48%
    11:00 +19°C° 0 mm 2 mps 717 mmHg 43%
    12:00 +20°C° 0 mm 2 mps 716 mmHg 43%
    13:00 +21°C° 0 mm 2 mps 715 mmHg 42%
    14:00 +21°C° 0 mm 2 mps 715 mmHg 41%
    15:00 +21°C° 0 mm 2 mps 715 mmHg 42%
    16:00 +21°C° 0 mm 2 mps 714 mmHg 43%
    17:00 +21°C° 0 mm 2 mps 714 mmHg 45%
    18:00 +19°C° 0 mm 2 mps 715 mmHg 50%
    19:00 +19°C° 0 mm 1 mps 715 mmHg 56%
    20:00 +16°C° 0 mm 1 mps 716 mmHg 62%
    21:00 +16°C° 0 mm 1 mps 716 mmHg 63%
    22:00 +16°C° 0 mm 1 mps 716 mmHg 65%
    23:00 +16°C° 0 mm 1 mps 716 mmHg 67%

    26 July, Wednesday

    Time Temperature Precipitation Wind Pressure Humidity
    00:00 +15°C° 0 mm 1 mps 716 mmHg 70%
    01:00 +15°C° 0 mm 1 mps 715 mmHg 72%
    02:00 +15°C° 0 mm 1 mps 715 mmHg 74%
    03:00 +14°C° 0 mm 1 mps 714 mmHg 75%
    04:00 +14°C° 0 mm 1 mps 714 mmHg 77%
    05:00 +14°C° 0 mm 1 mps 713 mmHg 78%
    06:00 +14°C° 0 mm 1 mps 714 mmHg 78%
    07:00 +15°C° 0 mm 1 mps 714 mmHg 78%
    08:00 +16°C° 0 mm 1 mps 714 mmHg 78%
    09:00 +17°C° 0 mm 2 mps 714 mmHg 74%
    10:00 +18°C° 0 mm 2 mps 713 mmHg 69%
    11:00 +20°C° 0 mm 2 mps 713 mmHg 65%
    12:00 +21°C° 0 mm 2 mps 713 mmHg 61%
    13:00 +23°C° 0 mm 2 mps 712 mmHg 56%
    14:00 +24°C° 0 mm 3 mps 711 mmHg 52%
    15:00 +24°C° 0 mm 3 mps 711 mmHg 52%
    16:00 +24°C° 0 mm 3 mps 711 mmHg 53%
    17:00 +24°C° 0 mm 3 mps 711 mmHg 53%
    18:00 +23°C° 0 mm 2 mps 711 mmHg 60%
    19:00 +20°C° 0 mm 2 mps 712 mmHg 67%
    20:00 +18°C° 0 mm 2 mps 712 mmHg 74%
    21:00 +18°C° 0 mm 2 mps 712 mmHg 75%
    22:00 +18°C° 0 mm 2 mps 712 mmHg 76%
    23:00 +17°C° 0 mm 2 mps 713 mmHg 77%
    Show more